Flag for U.S.A. Weather past 2 weeks in Black Mountain, North Carolina, U.S.A.

Now
61 °F

Fog.


Feels Like: 61 °F
Forecast: 59 / 76 °F
Wind: No wind

Location: Asheville Regional Airport

Current Time: Sep 15, 2014 at 6:29:53 AM

Latest Report: Sep 15, 2014 at 5:54 AM


Visibility: 3 mi

Pressure: 30.20 "Hg

Humidity: 97%

Dew point: 60 °F

Location of Black MountainLocation

Historic Weather in Black Mountain — Graph

°F

Black Mountain temperature yesterday

Maximum temperature yesterday: 65 °F (at 2:54 PM)
Minimum temperature yesterday: 61 °F (at 12:54 PM)
Average temperature yesterday: 63 °F

Past Weeks' High & Low Weather Summary

 TemperatureHumidityPressure
High87 °F (Sep 1, 2:54 PM)97% (Sep 1, 3:54 AM)30.30 "Hg (Sep 1, 3:54 AM)
Low61 °F (Sep 14, 12:54 PM)46% (Sep 1, 2:54 PM)29.97 "Hg (Sep 7, 3:54 PM)
Average71 °F83%30.10 "Hg
* Reported Aug 31 4:54 AM — Sep 15 4:54 AM, Black Mountain, Weather by CustomWeather, © 2014

Note: Actual official high and low records may vary slightly from our data, if they occured in-between our weather recording intervals... More about our weather records

Advertising

Black Mountain weather history for previous 24 hours

 ConditionsComfort  
Time TempWeatherWind HumidityBarometerVisibility
4:54 AM
Sep 15
61 °FFog.No wind97%30.19 "Hg3 mi
3:54 AM61 °FLow clouds.No wind93%30.20 "Hg9 mi
2:54 AM61 °FLow clouds.No wind93%30.21 "Hg7 mi
1:54 AM61 °FFog.5 mph93%30.23 "Hg3 mi
12:54 AM61 °FFog.5 mph93%30.24 "Hg6 mi
11:54 PM
Sep 14
61 °FMostly cloudy.7 mph93%30.24 "Hg8 mi
10:54 PM61 °FLow clouds.6 mph93%30.24 "Hg10 mi
9:54 PM62 °FLow clouds.6 mph90%30.23 "Hg10 mi
8:54 PM63 °FOvercast.8 mph87%30.22 "Hg10 mi
7:54 PM63 °FOvercast.6 mph87%30.20 "Hg10 mi
6:54 PM65 °FOvercast.7 mph81%30.19 "Hg10 mi
5:54 PM65 °FOvercast.5 mph78%30.19 "Hg10 mi
4:54 PM65 °FOvercast.6 mph78%30.19 "Hg10 mi
3:54 PM65 °FOvercast.9 mph78%30.20 "Hg10 mi
2:54 PM65 °FMostly cloudy.7 mph76%30.22 "Hg10 mi
1:54 PM62 °FOvercast.6 mph80%30.25 "Hg10 mi
12:54 PM61 °FLow clouds.10 mph83%30.26 "Hg10 mi
11:54 AM62 °FOvercast.8 mph80%30.26 "Hg10 mi
10:54 AM62 °FOvercast.7 mph86%30.27 "Hg10 mi
9:54 AM62 °FOvercast.8 mph83%30.25 "Hg10 mi
8:54 AM62 °FOvercast.7 mph86%30.23 "Hg10 mi
7:54 AM63 °FOvercast.5 mph87%30.22 "Hg10 mi
6:54 AM63 °FOvercast.5 mph90%30.21 "Hg10 mi
Weather by CustomWeather, © 2014

See weather overviewHow to use our weather pages